When you browse on this site, cookies collect data to enhance your experience and personalize the content and advertising you see.
Visit our Privacy Policy to learn more. By continuing to use the site, you agree to this use of cookies and data.
  • In Czech Republic
  • List of Countries
  • For 7 days
  • Water Temperature
  • Satellite Maps
  • Weather Map
  • Weather Widgets
  • user-avatar
    Login

    Hourly Weather Fuzhou

    Today, 18 January, Friday

    Time Temperature Precipitation Wind Pressure Humidity
    00:00 +12°C° 0 mm 1 mps 769 mmHg 84%
    01:00 +12°C° 0 mm 1 mps 769 mmHg 82%
    02:00 +12°C° 0 mm 2 mps 769 mmHg 78%
    03:00 +12°C° 0 mm 2 mps 769 mmHg 78%
    04:00 +10°C° 0 mm 2 mps 768 mmHg 77%
    05:00 +10°C° 0 mm 2 mps 768 mmHg 76%
    06:00 +12°C° 0 mm 2 mps 768 mmHg 75%
    07:00 +12°C° 0 mm 2 mps 768 mmHg 74%
    08:00 +12°C° 0 mm 2 mps 768 mmHg 69%
    09:00 +12°C° 0 mm 3 mps 768 mmHg 65%
    10:00 +13°C° 0 mm 3 mps 768 mmHg 62%
    11:00 +14°C° 0 mm 3 mps 768 mmHg 58%
    12:00 +16°C° 0 mm 3 mps 767 mmHg 57%
    13:00 +17°C° 0 mm 3 mps 767 mmHg 56%
    14:00 +17°C° 0 mm 2 mps 766 mmHg 55%
    15:00 +16°C° 0 mm 2 mps 766 mmHg 59%
    16:00 +16°C° 0 mm 2 mps 765 mmHg 63%
    17:00 +15°C° 0 mm 2 mps 765 mmHg 67%
    18:00 +14°C° 0 mm 2 mps 765 mmHg 72%
    19:00 +13°C° 0 mm 1 mps 766 mmHg 78%
    20:00 +12°C° 0 mm 1 mps 766 mmHg 83%
    21:00 +11°C° 0 mm 1 mps 766 mmHg 84%
    22:00 +11°C° 0 mm 1 mps 766 mmHg 86%
    23:00 +11°C° 0 mm 1 mps 766 mmHg 88%

    Tomorrow, 19 January, Saturday

    Time Temperature Precipitation Wind Pressure Humidity
    00:00 +11°C° 0 mm 1 mps 766 mmHg 88%
    01:00 +10°C° 0 mm 1 mps 766 mmHg 89%
    02:00 +10°C° 0 mm 1 mps 765 mmHg 90%
    03:00 +10°C° 0 mm 1 mps 765 mmHg 90%
    04:00 +10°C° 0 mm 1 mps 765 mmHg 90%
    05:00 +10°C° 0 mm 1 mps 765 mmHg 90%
    06:00 +11°C° 0 mm 1 mps 765 mmHg 87%
    07:00 +11°C° 0 mm 1 mps 765 mmHg 84%
    08:00 +12°C° 0 mm 1 mps 765 mmHg 81%
    09:00 +15°C° 0 mm 1 mps 765 mmHg 71%
    10:00 +19°C° 0 mm 1 mps 765 mmHg 61%
    11:00 +20°C° 0 mm 0 mps 765 mmHg 52%
    12:00 +21°C° 0 mm 0 mps 764 mmHg 49%
    13:00 +22°C° 0 mm 0 mps 763 mmHg 47%
    14:00 +23°C° 0 mm 0 mps 762 mmHg 44%
    15:00 +24°C° 0 mm 1 mps 762 mmHg 51%
    16:00 +23°C° 0 mm 1 mps 762 mmHg 57%
    17:00 +22°C° 0 mm 1 mps 762 mmHg 64%
    18:00 +20°C° 0 mm 1 mps 763 mmHg 70%
    19:00 +17°C° 0 mm 0 mps 763 mmHg 77%
    20:00 +15°C° 0 mm 0 mps 764 mmHg 83%
    21:00 +15°C° 0 mm 0 mps 764 mmHg 85%
    22:00 +15°C° 0 mm 0 mps 764 mmHg 86%
    23:00 +15°C° 0 mm 0 mps 764 mmHg 87%

    Day after tomorrow, 20 January, Sunday

    Time Temperature Precipitation Wind Pressure Humidity
    00:00 +14°C° 0 mm 0 mps 764 mmHg 88%
    01:00 +14°C° 0 mm 0 mps 764 mmHg 88%
    02:00 +15°C° 0 mm 1 mps 764 mmHg 89%
    03:00 +15°C° 0 mm 1 mps 764 mmHg 89%
    04:00 +15°C° 0 mm 1 mps 763 mmHg 89%
    05:00 +15°C° 0 mm 1 mps 763 mmHg 89%
    06:00 +16°C° 0 mm 1 mps 764 mmHg 89%
    07:00 +16°C° 0 mm 1 mps 764 mmHg 88%
    08:00 +16°C° 0 mm 1 mps 765 mmHg 88%
    09:00 +17°C° 0 mm 2 mps 765 mmHg 84%
    10:00 +18°C° 0 mm 2 mps 765 mmHg 81%
    11:00 +18°C° 0 mm 2 mps 765 mmHg 78%
    12:00 +18°C° 0 mm 2 mps 765 mmHg 79%
    13:00 +17°C° 0 mm 2 mps 764 mmHg 80%
    14:00 +17°C° 0 mm 2 mps 764 mmHg 81%
    15:00 +16°C° 0 mm 2 mps 764 mmHg 82%
    16:00 +16°C° 0 mm 3 mps 764 mmHg 82%
    17:00 +14°C° 0 mm 3 mps 765 mmHg 82%
    18:00 +14°C° 0 mm 3 mps 765 mmHg 83%
    19:00 +14°C° 0 mm 3 mps 766 mmHg 85%
    20:00 +13°C° 0 mm 3 mps 767 mmHg 86%
    21:00 +13°C° 0.1 mm 3 mps 767 mmHg 86%
    22:00 +13°C° 0.1 mm 3 mps 767 mmHg 87%
    23:00 +13°C° 0.1 mm 3 mps 767 mmHg 87%

    21 January, Monday

    Time Temperature Precipitation Wind Pressure Humidity
    00:00 +12°C° 0.1 mm 3 mps 767 mmHg 87%
    01:00 +12°C° 0.1 mm 3 mps 767 mmHg 87%
    02:00 +12°C° 0.1 mm 3 mps 767 mmHg 87%
    03:00 +12°C° 0.1 mm 3 mps 767 mmHg 87%
    04:00 +11°C° 0.1 mm 3 mps 766 mmHg 87%
    05:00 +12°C° 0.1 mm 2 mps 766 mmHg 87%
    06:00 +12°C° 0.1 mm 2 mps 767 mmHg 87%
    07:00 +12°C° 0.1 mm 2 mps 767 mmHg 86%
    08:00 +12°C° 0.1 mm 2 mps 767 mmHg 86%
    09:00 +12°C° 0 mm 2 mps 767 mmHg 84%
    10:00 +12°C° 0 mm 2 mps 767 mmHg 83%
    11:00 +12°C° 0 mm 2 mps 767 mmHg 81%
    12:00 +13°C° 0 mm 2 mps 766 mmHg 78%
    13:00 +14°C° 0 mm 2 mps 766 mmHg 74%
    14:00 +15°C° 0 mm 2 mps 765 mmHg 71%
    15:00 +14°C° 0.1 mm 2 mps 765 mmHg 74%
    16:00 +14°C° 0.1 mm 2 mps 765 mmHg 77%
    17:00 +13°C° 0.1 mm 2 mps 765 mmHg 80%
    18:00 +13°C° 0.3 mm 1 mps 766 mmHg 83%
    19:00 +13°C° 0.3 mm 1 mps 766 mmHg 85%
    20:00 +12°C° 0.3 mm 1 mps 767 mmHg 88%
    21:00 +12°C° 0.3 mm 1 mps 767 mmHg 89%
    22:00 +12°C° 0.3 mm 1 mps 767 mmHg 90%
    23:00 +12°C° 0.3 mm 1 mps 767 mmHg 91%

    22 January, Tuesday

    Time Temperature Precipitation Wind Pressure Humidity
    00:00 +12°C° 0 mm 1 mps 767 mmHg 92%
    01:00 +12°C° 0 mm 1 mps 766 mmHg 92%
    02:00 +11°C° 0 mm 0 mps 766 mmHg 93%
    03:00 +12°C° 0 mm 1 mps 766 mmHg 93%
    04:00 +12°C° 0 mm 1 mps 766 mmHg 93%
    05:00 +11°C° 0 mm 1 mps 766 mmHg 93%
    06:00 +12°C° 0 mm 1 mps 766 mmHg 92%
    07:00 +12°C° 0 mm 1 mps 767 mmHg 91%
    08:00 +12°C° 0 mm 1 mps 767 mmHg 90%
    09:00 +13°C° 0.1 mm 1 mps 767 mmHg 82%
    10:00 +15°C° 0.1 mm 1 mps 767 mmHg 75%
    11:00 +16°C° 0.1 mm 1 mps 767 mmHg 67%
    12:00 +16°C° 0 mm 1 mps 766 mmHg 66%
    13:00 +16°C° 0 mm 1 mps 765 mmHg 65%
    14:00 +16°C° 0 mm 1 mps 765 mmHg 65%
    15:00 +15°C° 0 mm 1 mps 765 mmHg 66%
    16:00 +15°C° 0 mm 1 mps 765 mmHg 67%
    17:00 +15°C° 0 mm 1 mps 765 mmHg 69%
    18:00 +14°C° 0 mm 1 mps 765 mmHg 73%
    19:00 +12°C° 0 mm 1 mps 766 mmHg 78%
    20:00 +11°C° 0 mm 1 mps 766 mmHg 83%
    21:00 +11°C° 0 mm 1 mps 767 mmHg 84%
    22:00 +11°C° 0 mm 1 mps 767 mmHg 85%
    23:00 +11°C° 0 mm 1 mps 767 mmHg 86%

    23 January, Wednesday

    Time Temperature Precipitation Wind Pressure Humidity
    00:00 +11°C° 0 mm 1 mps 767 mmHg 86%
    01:00 +10°C° 0 mm 1 mps 767 mmHg 87%
    02:00 +10°C° 0 mm 1 mps 767 mmHg 87%
    03:00 +10°C° 0 mm 1 mps 766 mmHg 87%
    04:00 +10°C° 0 mm 1 mps 766 mmHg 87%
    05:00 +10°C° 0 mm 1 mps 766 mmHg 88%
    06:00 +10°C° 0 mm 1 mps 767 mmHg 87%
    07:00 +10°C° 0 mm 1 mps 767 mmHg 86%
    08:00 +11°C° 0 mm 1 mps 768 mmHg 85%
    09:00 +12°C° 0 mm 1 mps 767 mmHg 75%
    10:00 +14°C° 0 mm 2 mps 767 mmHg 66%
    11:00 +16°C° 0 mm 2 mps 767 mmHg 56%
    12:00 +17°C° 0 mm 2 mps 766 mmHg 54%
    13:00 +17°C° 0 mm 2 mps 765 mmHg 51%
    14:00 +17°C° 0 mm 2 mps 765 mmHg 49%
    15:00 +16°C° 0 mm 2 mps 765 mmHg 53%
    16:00 +15°C° 0 mm 2 mps 765 mmHg 56%
    17:00 +14°C° 0 mm 2 mps 764 mmHg 60%
    18:00 +13°C° 0 mm 2 mps 765 mmHg 64%
    19:00 +12°C° 0 mm 1 mps 766 mmHg 68%
    20:00 +11°C° 0 mm 1 mps 766 mmHg 72%
    21:00 +11°C° 0 mm 1 mps 766 mmHg 72%
    22:00 +10°C° 0 mm 1 mps 766 mmHg 73%
    23:00 +10°C° 0 mm 1 mps 766 mmHg 73%
    Show more